Location: Joplin, MO
(37.0842°N, 94.5133°W)
Time: 21:05:11
(UTC+02:00)

Transit 2A Rocket - Pass Details

Date: 26 March 2023
Orbit: 584 x 914 km, 66.7° (Epoch: 06 June)

Event Time Altitude Azimuth Distance (km) Brightness Sun altitude
Rises 05:02:37 0° 327° (NNW) 3,550 9.3 -29.2°
Reaches altitude 10° 05:05:14 10° 324° (NW) 2,593 8.5 -29.6°
Maximum altitude 05:11:08 56° 248° (WSW) 1,034 5.7 -30.6°
Enters shadow 05:11:20 56° 239° (WSW) 1,036 5.7 -30.7°
Drops below altitude 10° 05:16:42 10° 171° (S) 2,440 - -31.6°
Sets 05:19:06 0° 167° (SSE) 3,324 - -32.0°
